Upstream stations:
Downstream station:
SHEF ID: AMAT2 Canadian Rv nr Amarillo, TX
STATION TYPE:
Regulating: Stage = 13.00, Flow = 87096
STAGE RIV-FLOW WTR-TEMP CONDUCT BAT-LOAD
ft cfs F umho/cm volt
Ccp-Rev Ccp-Rev Ccp-Rev Ccp-Rev Ccp-Rev
(US/Central)
05/24 00:00 0.63 0 61.41 6 12.57
05/24 01:00 0.64 0 61.14 6 12.57
05/24 02:00 0.67 0 61.00 5 12.57
05/24 03:00 0.69 1 60.82 6 12.57
05/24 04:00 0.70 1 60.58 6 12.57
05/24 05:00 0.70 1 60.31 6 12.57
05/24 06:00 0.72 1 60.03 7 12.57
05/24 07:00 0.71 1 59.76 7 12.57
05/24 08:00 0.72 1 59.50 7 12.57
05/24 09:00 0.72 1 59.36 7 12.57
05/24 10:00 0.72 1 59.31 7 12.57
05/24 11:00 0.73 1 59.29 7 12.65
05/24 12:00 0.73 1 59.41 8 12.73
05/24 13:00 0.73 1 59.74 8 12.97
05/24 14:00 0.72 1 60.48 8 12.97
05/24 15:00 0.72 1 61.59 8 12.81
05/24 16:00 0.72 1 62.56 8 12.97
05/24 17:00 0.71 1 63.01 8 12.81
05/24 18:00 0.71 1 63.37 8 12.65
05/24 19:00 0.72 1 63.12 8 12.65
05/24 20:00 0.72 1 62.24 8 12.57
05/24 21:00 0.71 1 61.25 8 12.57
05/24 22:00 0.71 1 60.28 8 12.57
05/24 23:00 1.06 13 59.32 8 12.57